TimeCET,TemperatureF,Dew PointF,Humidity,Sea Level PressureIn,VisibilityMPH,Wind Direction,Wind SpeedMPH,Gust SpeedMPH,PrecipitationIn,Events,Conditions,WindDirDegrees,DateUTC
12:00 AM,48.2,39.2,71,30.09,-9999.0,WSW,6.9,-,N/A,,Clear,240,2012-12-06 23:00:00
12:30 AM,51.8,39.2,62,30.09,-9999.0,West,9.2,-,N/A,,Clear,270,2012-12-06 23:30:00
1:00 AM,50,36,49,30.10,12,WSW,9.2,,,,Clear,250,2012-12-07 00:00:00
1:00 AM,50.0,39.2,66,30.06,-9999.0,WSW,9.2,-,N/A,,Clear,250,2012-12-07 00:00:00
2:00 AM,48.2,39.2,71,30.06,-9999.0,SW,6.9,-,N/A,,Clear,220,2012-12-07 01:00:00
2:30 AM,46.4,39.2,76,30.06,-9999.0,SW,8.1,-,N/A,,Clear,220,2012-12-07 01:30:00
3:00 AM,46.4,39.2,76,30.06,-9999.0,WSW,8.1,-,N/A,,Clear,240,2012-12-07 02:00:00
3:30 AM,46.4,39.2,76,30.04,-9999.0,West,6.9,-,N/A,,Clear,260,2012-12-07 02:30:00
4:00 AM,46.4,39.2,76,30.04,-9999.0,WSW,5.8,-,N/A,,Clear,240,2012-12-07 03:00:00
4:30 AM,44.6,39.2,81,30.04,-9999.0,WSW,5.8,-,N/A,,Clear,250,2012-12-07 03:30:00
5:00 AM,50.0,37.4,62,30.04,-9999.0,WSW,10.4,-,N/A,,Clear,250,2012-12-07 04:00:00
5:30 AM,53.6,35.6,51,30.04,-9999.0,West,9.2,-,N/A,,Clear,270,2012-12-07 04:30:00
6:00 AM,46.4,39.2,76,30.04,-9999.0,SSW,8.1,-,N/A,,Clear,210,2012-12-07 05:00:00
6:30 AM,48.2,39.2,71,30.04,-9999.0,SW,11.5,-,N/A,,Clear,230,2012-12-07 05:30:00
7:00 AM,49,36,51,30.04,12,WSW,10.4,,,,Scattered Clouds,240,2012-12-07 06:00:00
7:00 AM,48.2,39.2,71,30.01,-9999.0,WSW,10.4,-,N/A,,Clear,240,2012-12-07 06:00:00
7:30 AM,50.0,39.2,66,30.04,-9999.0,WSW,11.5,-,N/A,,Clear,240,2012-12-07 06:30:00
8:00 AM,50.0,39.2,66,30.04,6.2,WSW,11.5,-,N/A,,Partly Cloudy,240,2012-12-07 07:00:00
8:30 AM,50.0,39.2,66,30.04,6.2,WSW,9.2,-,N/A,,Partly Cloudy,240,2012-12-07 07:30:00
9:00 AM,50.0,39.2,66,30.04,6.2,WSW,8.1,-,N/A,,Partly Cloudy,240,2012-12-07 08:00:00
9:30 AM,50.0,41.0,71,30.04,6.2,WSW,9.2,-,N/A,,Partly Cloudy,240,2012-12-07 08:30:00
10:00 AM,53.6,41.0,62,30.04,-9999.0,WSW,6.9,-,N/A,,Clear,250,2012-12-07 09:00:00
10:30 AM,57.2,41.0,55,30.04,-9999.0,SW,6.9,-,N/A,,Clear,230,2012-12-07 09:30:00
11:00 AM,57.2,41.0,55,30.04,-9999.0,SW,8.1,-,N/A,,Clear,230,2012-12-07 10:00:00
11:30 AM,59.0,42.8,55,30.04,-9999.0,SSW,8.1,-,N/A,,Clear,210,2012-12-07 10:30:00
12:00 PM,60.8,41.0,48,30.01,-9999.0,SW,8.1,-,N/A,,Clear,220,2012-12-07 11:00:00
12:30 PM,60.8,41.0,48,30.01,6.2,SSW,9.2,-,N/A,,Partly Cloudy,210,2012-12-07 11:30:00
1:00 PM,61,38,31,29.99,19,SW,10.4,,,,Scattered Clouds,230,2012-12-07 12:00:00
1:00 PM,60.8,41.0,48,29.98,6.2,SW,10.4,-,N/A,,Partly Cloudy,230,2012-12-07 12:00:00
1:30 PM,62.6,42.8,48,29.98,6.2,SW,9.2,-,N/A,,Partly Cloudy,230,2012-12-07 12:30:00
2:00 PM,64.4,42.8,45,29.95,6.2,SW,10.4,-,N/A,,Partly Cloudy,230,2012-12-07 13:00:00
2:30 PM,64.4,42.8,45,29.92,6.2,SW,10.4,-,N/A,,Partly Cloudy,230,2012-12-07 13:30:00
3:00 PM,64.4,42.8,45,29.92,6.2,SW,9.2,-,N/A,,Partly Cloudy,230,2012-12-07 14:00:00
3:30 PM,66.2,42.8,43,29.92,6.2,SSW,8.1,-,N/A,,Partly Cloudy,210,2012-12-07 14:30:00
4:00 PM,64.4,42.8,45,29.92,6.2,SW,9.2,-,N/A,,Partly Cloudy,220,2012-12-07 15:00:00
4:30 PM,62.6,42.8,48,29.92,6.2,SSW,5.8,-,N/A,,Partly Cloudy,200,2012-12-07 15:30:00
5:00 PM,64.4,44.6,49,29.92,6.2,Variable,2.3,-,N/A,,Partly Cloudy,0,2012-12-07 16:00:00
5:30 PM,60.8,50.0,68,29.92,6.2,SSW,3.5,-,N/A,,Partly Cloudy,210,2012-12-07 16:30:00
6:00 PM,59.0,50.0,72,29.92,6.2,SW,3.5,-,N/A,,Scattered Clouds,220,2012-12-07 17:00:00
6:30 PM,57.2,46.4,67,29.92,6.2,WSW,4.6,-,N/A,,Mostly Cloudy,250,2012-12-07 17:30:00
7:00 PM,56,43,52,29.95,12,WSW,4.6,,,,Partly Cloudy,250,2012-12-07 18:00:00
7:00 PM,55.4,46.4,72,29.95,6.2,West,3.5,-,N/A,,Scattered Clouds,260,2012-12-07 18:00:00
7:30 PM,53.6,44.6,72,29.95,6.2,Variable,2.3,-,N/A,,Scattered Clouds,0,2012-12-07 18:30:00
8:00 PM,53.6,46.4,77,29.95,6.2,Variable,2.3,-,N/A,,Scattered Clouds,0,2012-12-07 19:00:00
8:30 PM,59.0,48.2,67,29.95,6.2,WNW,13.8,-,N/A,,Scattered Clouds,290,2012-12-07 19:30:00
9:00 PM,57.2,48.2,72,29.95,6.2,West,9.2,-,N/A,,Partly Cloudy,280,2012-12-07 20:00:00
9:30 PM,57.2,48.2,72,29.95,6.2,West,12.7,-,N/A,,Partly Cloudy,280,2012-12-07 20:30:00
10:00 PM,57.2,46.4,67,29.95,-9999.0,West,17.3,-,N/A,,Clear,280,2012-12-07 21:00:00
10:30 PM,59.0,46.4,63,29.98,-9999.0,WNW,21.9,-,N/A,,Clear,290,2012-12-07 21:30:00
11:00 PM,59.0,46.4,63,29.98,-9999.0,West,18.4,-,N/A,,Clear,280,2012-12-07 22:00:00
11:30 PM,57.2,44.6,63,29.98,-9999.0,West,16.1,-,N/A,,Clear,280,2012-12-07 22:30:00